Location: Unspecified
(56.5167°N, 0.0000°E)
Time: 08:08:25
(UTC+02:00)

Cosmos 1674 - Visible Passes

Search period start: 01 May 2016 00:00
Search period end: 11 May 2016 00:00
Orbit: 500 x 527 km, 82.5° (Epoch: 30 April)

Date Brightness Start Highest point End Pass type
(mag) Time Alt. Az. Time Alt. Az. Time Alt. Az.
05 May 4.6 05:10:37 10° SSE 05:13:56 29° E 05:17:15 10° NNE visible
06 May 4.8 04:55:12 10° SE 04:58:21 25° E 05:01:30 10° NNE visible
07 May 5.0 04:39:50 10° SE 04:42:46 22° E 04:45:42 10° NE visible
08 May 5.2 04:24:31 10° SE 04:27:11 19° E 04:29:52 10° NE visible
09 May 5.4 04:09:16 10° ESE 04:11:36 16° E 04:13:58 10° NE visible
10 May 5.4 03:54:06 10° ESE 03:56:03 14° E 03:57:59 10° NE visible
